Location: Ford County Road and Bridge Department
(37.7686°N, 99.9762°W)
Time: 06:47:08
(UTC+00:00)

NOSS 0 Rocket - Pass Details

Date: 18 January 2020
Orbit: 935 x 955 km, 70.0° (Epoch: 17 February)

Event Time Altitude Azimuth Distance (km) Brightness Sun altitude
Rises 01:01:36 0° 341° (NNW) 3,633 7.1 -14.7°
Reaches altitude 10° 01:04:14 10° 347° (NNW) 2,682 6.3 -15.2°
Maximum altitude 01:10:17 50° 62° (ENE) 1,190 4.1 -16.4°
Drops below altitude 10° 01:16:15 10° 137° (SE) 2,655 6.0 -17.5°
Sets 01:18:50 0° 142° (SE) 3,593 6.7 -18.0°
